Вернуться в каталог

THORAD DELTA 1 DEB

АктивенSSO
NORAD 8154·DEBRIS·🇺🇸 United States

Запущен Nov 15, 1974 с Vandenberg Space Force Base

Loading…

Ближайшие Пролёты (ближайшие 24 часа)

TLE

СвежийSource: Space-Track

Эпоха: Sep 14, 2026, 11:44 UTC

1 08154U 74089U   26257.48900110 -.00000045  00000-0  11538-4 0  9993
2 08154 102.0727 266.0783 0005771 140.2888  15.7699 12.52434992369323

Отслеживайте THORAD DELTA 1 DEB в реальном времени с AllMySat

Download on the App Store